Location: Newark
(35.8967°N, 14.4625°E)
Time: 15:21:24
(UTC+00:00)

N. Korean satellite - Pass Details

Date: 17 November 2019
Orbit: 456 x 506 km, 97.2° (Epoch: 06 December)

Event Time Altitude Azimuth Distance (km) Brightness Sun altitude
Rises 03:53:45 0° 33° (NNE) 2,607 10.6 -21.5°
Reaches altitude 10° 03:56:41 10° 59° (ENE) 1,710 10.0 -20.9°
Maximum altitude 03:58:43 14° 93° (E) 1,455 10.0 -20.5°
Drops below altitude 10° 04:00:44 10° 127° (SE) 1,691 10.2 -20.1°
Sets 04:03:36 0° 153° (SSE) 2,557 10.8 -19.5°
